Lid_Strength_Index
0 0 1 1 0 0 0 -0 -0 -1 -1 0 1 1 2 2 2 6 9 8 6 2 2 5 6 7 8 9 7 6 12 14 13 12 11 8 9 10 10 9 9 11 10 9 9
1 1 1 1 1 1 1 1 0 0 -0 -1 0 1 2 2 5 7 5 2 2 2 7 8 8 8 10 9 8 9 12 12 9 10 10 9 9 11 11 11 12 12 11 10 10
2 2 2 2 2 2 1 1 1 1 0 -0 0 1 2 3 9 10 2 2 3 3 5 5 7 9 10 10 9 9 11 9 9 10 11 10 11 12 12 12 11 12 12 11 11
3 3 3 3 3 2 2 2 2 1 1 0 1 1 1 6 16 9 2 3 3 5 6 7 9 11 11 11 9 11 8 8 8 10 11 10 11 12 12 10 10 10 10 11 11
3 3 4 4 3 3 3 2 2 2 1 0 1 1 4 10 11 7 3 4 5 6 7 8 11 11 12 11 10 11 9 8 9 10 12 11 11 12 12 11 11 10 10 11 10
3 3 3 3 3 3 3 3 3 2 2 1 1 1 8 14 7 7 7 7 7 8 8 7 10 10 11 11 11 11 10 9 11 12 12 11 12 12 12 11 11 11 11 11 11
1 2 2 2 2 2 2 2 2 2 2 1 1 3 8 12 7 7 6 7 7 7 9 8 7 10 9 11 10 11 13 13 12 13 13 12 13 14 12 12 12 12 12 12 12
2 2 2 2 2 2 2 1 1 1 1 0 1 5 12 8 8 7 7 8 8 7 8 7 7 9 9 10 11 13 14 16 13 13 13 12 13 13 14 13 13 13 14 13 12
3 3 3 2 2 2 1 -0 -0 0 -1 -1 5 9 13 6 9 8 7 8 8 8 8 8 9 10 11 13 15 15 17 18 16 13 14 14 15 14 14 15 14 15 14 14 13
4 3 3 3 3 1 -1 -1 -0 0 0 0 3 12 10 12 9 8 8 7 9 10 10 11 12 14 14 15 18 17 17 16 17 15 15 16 16 14 14 15 15 15 15 15 14
4 3 3 3 3 1 2 4 6 7 6 9 9 11 10 9 8 9 7 8 9 11 15 13 16 16 14 14 14 15 17 17 16 14 15 16 15 14 14 15 15 15 15 15 14
3 3 3 3 3 2 4 7 6 5 9 6 6 7 6 8 11 9 7 11 11 15 13 15 17 13 13 12 13 15 16 16 15 14 16 17 17 15 15 15 14 14 15 14 14
3 4 4 3 3 6 6 6 3 4 8 7 5 6 8 8 10 11 8 10 13 14 14 16 14 12 13 14 14 15 16 16 16 15 16 17 18 16 14 14 15 14 13 13 13
4 4 4 4 7 8 7 5 4 5 17 13 9 8 8 8 11 8 8 10 13 14 14 15 12 14 15 14 14 17 13 14 15 17 20 17 22 17 15 14 14 15 15 14 13
4 4 4 4 9 10 7 5 5 6 27 13 10 6 7 9 11 10 8 10 14 15 14 16 15 15 15 15 14 16 13 15 16 18 19 19 22 18 16 15 14 14 15 15 13
4 4 4 7 8 7 6 6 6 20 27 15 11 11 11 10 10 10 10 10 12 14 15 16 14 13 14 14 14 14 15 14 15 17 27 20 20 20 17 14 14 15 14 15 13
4 4 6 7 9 6 6 8 20 26 16 16 13 11 12 12 12 11 13 14 16 18 19 17 16 15 13 16 14 15 17 22 25 27 25 18 20 19 15 13 14 14 14 14 13
4 4 7 6 5 6 7 14 27 27 23 12 12 12 14 12 12 12 14 15 14 16 18 18 21 16 14 15 16 16 16 21 27 27 22 19 22 17 14 13 13 13 14 14 13
4 10 9 7 6 6 10 23 23 20 15 12 12 19 19 14 13 14 15 15 13 13 17 18 18 16 15 14 14 17 18 16 22 26 25 20 18 15 15 14 14 14 14 14 14
10 12 10 7 7 8 14 18 19 11 10 11 14 17 24 19 16 15 15 13 12 11 11 14 18 15 15 14 14 16 15 19 22 27 28 23 21 18 17 15 14 15 14 14 14
12 15 11 8 8 12 22 22 14 11 12 12 13 14 13 14 16 15 15 12 11 11 11 11 14 17 15 17 18 18 18 17 17 20 26 26 20 16 15 15 15 15 14 14 13
13 21 10 9 18 16 16 13 11 13 13 13 10 12 16 16 16 14 15 12 10 11 14 12 14 19 17 14 14 15 17 17 19 22 22 23 20 16 16 15 14 14 14 14 13
12 16 10 11 24 26 19 14 13 14 14 14 14 14 13 16 16 15 13 10 11 11 13 12 15 21 17 17 16 17 16 16 18 17 18 22 20 15 16 16 15 14 15 15 14
16 21 18 15 16 18 23 20 17 13 14 13 14 13 16 20 15 17 16 11 13 11 8 10 14 18 18 17 16 18 17 16 16 20 21 18 19 15 16 16 16 15 15 16 15
11 17 18 23 21 18 16 17 17 20 14 13 16 15 17 23 21 20 15 16 14 11 10 10 17 18 17 15 16 16 16 17 18 17 20 20 18 17 14 15 17 16 15 16 16
15 16 13 20 17 16 16 19 16 17 16 16 18 15 17 21 18 20 19 16 17 14 16 14 14 13 15 13 14 15 14 16 17 17 19 19 19 16 14 14 17 17 18 16 16
8 8 11 15 14 16 16 16 15 13 13 12 14 18 15 13 13 12 13 13 14 15 16 16 16 17 17 16 15 17 16 13 14 18 18 20 17 15 15 17 15 15 17 17 16